Tracking 19792 objects as of 17-Jul-2019
HD Live streaming from Space Station
objects crossing your sky now

FENGYUN 1C DEB

Track FENGYUN 1C DEB now!
10-day predictions


NORAD ID: 32192
Int'l Code: 1999-025CUN
Perigee: 832.5 km
Apogee: 1,105.3 km
Inclination: 98.6 °
Period: 104.3 minutes
Semi major axis: 7339 km
RCS: 0.0039 m2 (small)
Launch date: May 10, 1999
Source: People's Republic of China (PRC)
Launch site: Taiyaun Space Center, China (TSC)

Note: This is SATELLITE DEBRIS
aabbcc
Your satellite tracking list
Your tracking list is empty




NASA's NSSDC Master Catalog

Two Line Element Set (TLE):
1 32192U 99025CUN 19196.05175698 +.00000002 +00000-0 +33686-4 0  9991
2 32192 098.6170 226.3367 0185786 022.5788 338.3410 13.80599419603725
Source of the keplerian elements: AFSPC